Regional Weather Roundup
Issued by NWS

Home | Current Version | Previous Version | Text Only | Print | Product List | Glossary Off
Versions: 1 2 3 4 5 6 7 8 9 10 11 12 13 14 15 16 17 18 19 20 21 22 23 24 25 26 27 28 29 30 31 32 33 34 35 36 37 38 39 40 41 42 43 44 45 46 47 48 49 50

000
ASUS43 KMKX 020121
RWRWI

WISCONSIN REGIONAL WEATHER ROUNDUP
NATIONAL WEATHER SERVICE MILWAUKEE/SULLIVAN WI
800 PM CDT FRI AUG 01 2014

NOTE: "FAIR" INDICATES FEW OR NO CLOUDS BELOW 12,000 FEET WITH NO
SIGNIFICANT WEATHER AND/OR OBSTRUCTIONS TO VISIBILITY.

WIZ001-002-006>008-014>016-023>028-020200-
NORTHWEST WISCONSIN

CITY           SKY/WX    TMP DP  RH WIND       PRES   REMARKS
SUPERIOR ARPT  PTCLDY    60  54  82 NE3       30.07S
ASHLAND        CLEAR     65  61  87 N5        30.08S
HAYWARD        CLEAR     73  61  65 NE3       30.08R
SIREN          MOCLDY    76  60  57 CALM      30.06S
RICE LAKE      CLEAR     73  60  61 NE5       30.08S
LADYSMITH      CLEAR     73  60  64 CALM      30.10R
EAU CLAIRE     CLEAR     76  63  64 E3        30.06R
MENOMONIE      CLEAR     77  58  51 NE3       30.06S
NEW RICHMOND   PTCLDY    77  60  55 CALM      30.06S
OSCEOLA        PTCLDY    78  59  51 CALM      30.07S HX  80
$$

WIZ003>005-009-010-017-018-020200-
NORTH CENTRAL WISCONSIN

CITY           SKY/WX    TMP DP  RH WIND       PRES   REMARKS
WOODRUFF       CLEAR     69  55  59 CALM      30.12R
RHINELANDER    PTCLDY    68  56  65 CALM      30.11R
EAGLE RIVER    PTCLDY    67  53  59 CALM      30.11R
LAND O LAKES   PTCLDY    66  58  76 CALM      30.12R
PHILLIPS       MOCLDY    67  60  76 CALM      30.10R
TOMAHAWK       PTCLDY    65  59  79 CALM      30.10R
MEDFORD        CLEAR     68  61  77 SE3       30.10R
MERRILL        MOCLDY    72  64  76 SW5       30.09R
$$

WIZ029-030-035-036-043>047-020200-
CENTRAL WISCONSIN

CITY           SKY/WX    TMP DP  RH WIND       PRES   REMARKS
WAUSAU         MOCLDY    69  60  73 VRB3      30.08R
MOSINEE        NOT AVBL
MARSHFIELD     MOCLDY    65  61  87 SW7       30.09R
STEVENS POINT  CLOUDY    64  56  75 W3        30.09S
WAUPACA        CLOUDY    70  54  57 CALM      30.08S
WAUTOMA        CLOUDY    62  60  93 CALM      30.09R
WISC RAPIDS    LGT RAIN  65  57  75 W5        30.10R
CAMP DOUGLAS   CLOUDY    62  62 100 S8        30.10S
$$

WIZ011>013-019>022-031-037>040-048>050-020200-
NORTHEAST WISCONSIN

CITY           SKY/WX    TMP DP  RH WIND       PRES   REMARKS
ANTIGO         MOCLDY    65  61  86 SW5       30.10S
STURGEON BAY   MOCLDY    66  59  77 SE3       30.07S
GREEN BAY      CLOUDY    71  64  78 SW6       30.06R
MANITOWOC      CLOUDY    66  62  87 CALM      30.07R
APPLETON       MOCLDY    70  61  73 VRB5      30.08R
CLINTONVILLE   CLOUDY    66  55  68 NW3       30.07S
OSHKOSH        CLOUDY    69  64  84 W3        30.07R
$$

WIZ032>034-041-042-053>061-020200-
SOUTHWEST WISCONSIN

CITY           SKY/WX    TMP DP  RH WIND       PRES   REMARKS
LA CROSSE      PTCLDY    80  61  52 SW3       30.05R HX  81
SPARTA         CLOUDY    69  55  60 E13       30.10S
VIROQUA        FAIR      73  64  73 E3        30.09S
BOSCOBEL       PTCLDY    79  61  53 E5        30.07R HX  80
PRAIRIE DU CHI CLEAR     73  61  64 CALM      30.06S
PLATTEVILLE    MOCLDY    74  63  69 N5        30.09S
$$

WIZ056-057-062-063-064-067-068-020200-
SOUTH CENTRAL WISCONSIN

CITY           SKY/WX    TMP DP  RH WIND       PRES   REMARKS
BARABOO/DELLS  CLOUDY    64  57  80 CALM      30.10R
LONE ROCK      MOCLDY    72  56  57 SE5       30.10S
WATERTOWN      LGT RAIN  66  58  74 W9        30.11S
MADISON        LGT RAIN  64  57  78 NE10      30.09F
MIDDLETON      FAIR      66  56  70 E7        30.10F
MONROE         PTCLDY    68  54  60 N13       30.10R
JANESVILLE     MOCLDY    73  54  49 N20       30.09R THUNDER
$$

WIZ051-052-058>065-066-070>072-020200-
SOUTHEAST WISCONSIN

CITY           SKY/WX    TMP DP  RH WIND       PRES   REMARKS
MILWAUKEE      TSTM      66  55  67 S10       30.10F
WAUKESHA       CLOUDY    63  55  77 SE5       30.15R
MILWAUKEE/TIMM NOT AVBL
RACINE         TSTM      65  57  75 N9        30.14R
BURLINGTON     LGT RAIN  60  56  87 N10       30.11F
KENOSHA        CLOUDY    68  58  70 N15G21    30.12R
FOND DU LAC    CLOUDY    69  60  73 SE5       30.08R
SHEBOYGAN      CLOUDY    68  59  73 SW9       30.08R
WEST BEND      CLOUDY    66  54  63 SW5       30.10R
JUNEAU         CLOUDY    67  47  48 SW13      30.09F
$$

LSZ147-162-020200-
LAKE SUPERIOR

STATION/POSITION TIME  TEMP    WIND        PRES    WAVE
                       AIR SEA DIR/SP/G            HT/PER
                 (UTC) (F)     (DEG/KT/KT) (MB)    (FT/S)
W MID LAKE BUOY  0050   51 48  340/  4/  4 1019.0R
PORT WING        0000   63      20/ 12/ 14 1017.9S
SAXON HARBOR     0040             CALM     1018.6S
$$

LMZ867-665-643>646-020200-
LAKE MICHIGAN

STATION/POSITION TIME  TEMP    WIND        PRES    WAVE
                       AIR SEA DIR/SP/G            HT/PER
                 (UTC) (F)     (DEG/KT/KT) (MB)    (FT/S)
N MID LAKE BUOY  0050   63 60   60/  2/  4 1017.9R   0
NORTHPORT PIER   0000   65     150/  6/  8 1017.9S
ALGOMA LAKESHORE 0006             CALM       N/A
KEWAUNEE LAKESHO 0100   62     180/  5/  6 1017.3R
SHEBOYGAN LAKESH 0100   71     230/  8/  9 1018.1R
PORT WASHINGTON  0040   69     260/  9/ 13 1018.6F
ATWATER BUOY     0100   68     200/ 14     1019.6R
MILWAUKEE LAKESH 0100   67     210/ 13/ 15   N/A
S MID LAKE BUOY  0050   66 65  240/  4/ 12 1018.9R   0
KENOSHA   LAKESH 0100   70      20/ 25/ 32 1018.6R
$$

TC  - TEMPERATURE IN CELSIUS
VSB - VISIBILITY IN STATUTE MILES
WCI - WIND CHILL INDEX
HX  - HEAT INDEX



USA.gov is the U.S. government's official web portal to all federal, state and local government web resources and services.